Flag for India Weather past 2 weeks in Chennai, Tamil Nadu, India

Now
81 °F

Fog.


Feels Like: 86 °F
Forecast: 79 / 92 °F
Wind: 6 mph from West

Location: Madras / Minambakkam


UV Index: 10 (Very high)

Visibility: 1 mi


Pressure: 29.80 "Hg

Humidity: 84%

Dew point: 75 °F

Location of ChennaiLocation

Historic Weather in Chennai

°F

Chennai temperature yesterday

Maximum temperature yesterday: 93 °F (at 12:40 PM)
Minimum temperature yesterday: 77 °F (at 4:40 AM)
Average temperature yesterday: 84 °F

Past Weeks' High & Low Weather Summary

 TemperatureHumidityPressure
High99 °F (Apr 9, 12:40 PM)89% (Apr 7, 3:40 AM)29.95 "Hg (Apr 7, 3:40 AM)
Low77 °F (Apr 20, 4:40 AM)33% (Apr 11, 11:40 AM)29.65 "Hg (Apr 17, 4:40 PM)
Average87 °F69%29.80 "Hg
* Reported Apr 6 7:40 AM — Apr 21 7:40 AM, Chennai, Weather by CustomWeather, © 2014

Note: Actual official high and low records may vary slightly from our data, if they occured in-between our weather recording intervals... More about our weather records

Advertising

Historic Weather Conditions — Data for Previous 24 hours

 ConditionsComfort  
Time TempWeatherWind HumidityBarometerVisibility
7:40 AM
Apr 21
81 °FFog.6 mph84%29.80 "Hg1 mi
6:40 AM77 °FFog.No wind89%29.80 "Hg1 mi
5:40 AM77 °FHaze.No wind89%29.77 "Hg2 mi
4:40 AM79 °FHaze.No wind84%29.74 "Hg3 mi
3:40 AM79 °FPassing clouds.No wind84%29.74 "Hg4 mi
2:40 AM79 °FPassing clouds.No wind89%29.74 "Hg4 mi
1:40 AM79 °FPassing clouds.No wind84%29.74 "Hg4 mi
12:40 AM79 °FPassing clouds.No wind84%29.77 "Hg4 mi
11:40 PM
Apr 20
81 °FPassing clouds.3 mph79%29.77 "Hg4 mi
10:40 PM82 °FPassing clouds.6 mph79%29.80 "Hg4 mi
9:40 PM84 °FPassing clouds.6 mph74%29.80 "Hg4 mi
8:40 PM84 °FPassing clouds.9 mph74%29.77 "Hg4 mi
7:40 PM84 °FPassing clouds.9 mph70%29.77 "Hg4 mi
6:40 PM84 °FPassing clouds.10 mph70%29.74 "Hg4 mi
5:40 PM88 °FPassing clouds.10 mph59%29.71 "Hg4 mi
4:40 PM90 °FPassing clouds.13 mph55%29.71 "Hg5 mi
3:40 PM91 °FPassing clouds.13 mph49%29.71 "Hg5 mi
2:40 PM91 °FPassing clouds.9 mph44%29.74 "Hg5 mi
1:40 PM93 °FPassing clouds.9 mph44%29.74 "Hg5 mi
12:40 PM93 °FPassing clouds.9 mph47%29.80 "Hg5 mi
10:40 AM91 °FPassing clouds.5 mph49%29.83 "Hg5 mi
Weather by CustomWeather, © 2014

See weather overview